EW7372 Weather Reports


time (UTC)temp
F
wind
direction
speed
knots
gust
knots
rain 1hr
in
rain 24hr
in
rain mn
in
humidity
%
barometer
mb
20260507114523 50 196 0.0 0.0 0.00 0.00 0.00 74 1010.3
20260507113025 50 196 0.0 0.0 0.00 0.00 0.00 73 1010.4
20260507111521 51 196 0.0 0.0 0.00 0.00 0.00 72 1010.2
20260507110015 52 196 0.0 0.0 0.00 0.00 0.00 70 1010.1
20260507104513 52 232 0.0 0.9 0.00 0.00 0.00 69 1010.1
20260507103010 52 298 0.0 0.0 0.00 0.00 0.00 68 1009.9
20260507101509 53 297 0.0 0.0 0.00 0.00 0.00 67 1009.8
20260507100011 53 277 0.0 0.0 0.00 0.00 0.00 65 1009.6
20260507094502 54 244 0.0 0.0 0.00 0.00 0.00 64 1009.4
20260507093103 54 90 0.0 0.0 0.00 0.00 0.00 62 1009.2
20260507091557 55 32 0.0 0.0 0.00 0.00 0.00 60 1009.1
20260507090059 56 205 0.0 0.0 0.00 0.00 0.00 57 1009.0
20260507084603 57 222 0.0 0.0 0.00 0.00 0.00 56 1008.8
20260507083050 57 215 0.0 0.0 0.00 0.00 0.00 56 1008.6
20260507081545 58 215 0.0 0.0 0.00 0.00 0.00 55 1008.5
20260507080049 58 214 0.0 0.0 0.00 0.00 0.00 55 1008.3
20260507074541 59 214 0.0 0.0 0.00 0.00 0.00 54 1008.2
20260507073041 60 214 0.0 0.0 0.00 0.00 0.00 53 1008.0
20260507071534 60 213 0.0 0.0 0.00 0.00 0.00 52 1007.9
20260507070041 61 213 0.0 0.0 0.00 0.00 0.00 50 1007.8
20260507064530 62 214 0.0 0.0 0.00 0.00 0.00 49 1007.5
20260507063033 63 213 0.0 1.7 0.00 0.00 0.00 49 1007.3
20260507061529 63 339 0.0 0.0 0.00 0.00 0.00 48 1007.2
20260507060029 64 282 0.0 0.0 0.00 0.00 0.00 48 1007.2
20260507054528 64 220 0.0 0.0 0.00 0.00 0.00 48 1007.2
20260507053028 64 30 0.0 0.0 0.00 0.00 0.00 48 1007.2
20260507051527 65 307 0.0 0.0 0.00 0.00 0.00 48 1006.9
20260507050039 65 322 0.0 0.0 0.00 0.00 0.00 46 1006.9
20260507044526 66 284 0.0 0.0 0.00 0.00 0.00 45 1006.9
20260507043025 67 288 0.0 3.5 0.00 0.00 0.00 43 1007.0
20260507041525 68 299 0.0 0.0 0.00 0.00 0.00 42 1007.2
20260507040025 69 310 0.0 7.8 0.00 0.00 0.00 39 1006.9
20260507034524 70 271 0.0 0.0 0.00 0.00 0.00 38 1006.9
20260507033023 71 302 0.0 0.0 0.00 0.00 0.00 38 1006.5
20260507031522 71 277 0.0 2.6 0.00 0.00 0.00 41 1006.4
20260507030021 72 242 0.0 0.0 0.00 0.00 0.00 46 1006.5
20260507024521 73 215 0.0 3.5 0.00 0.00 0.00 45 1006.6
20260507023020 74 227 0.0 0.0 0.00 0.00 0.00 43 1006.6
20260507021528 74 223 0.0 0.9 0.00 0.00 0.00 42 1006.6
20260507020017 75 250 0.0 2.6 0.00 0.00 0.00 41 1006.8
20260507014517 75 224 0.0 0.0 0.00 0.00 0.00 40 1007.0
20260507013015 76 234 0.0 0.0 0.00 0.00 0.00 39 1007.1
20260507011518 76 238 0.0 0.0 0.00 0.00 0.00 38 1007.2
20260507010021 76 266 0.0 0.0 0.00 0.00 0.00 38 1007.3
20260507004511 77 218 0.0 0.0 0.00 0.00 0.00 37 1007.5
20260507003010 77 250 0.0 0.0 0.00 0.00 0.00 37 1007.6
20260507001509 77 220 0.0 1.7 0.00 0.00 0.00 35 1007.5
20260507000009 77 203 0.0 7.8 0.00 0.00 0.00 37 1007.5
20260506234509 77 232 0.0 2.6 0.00 0.00 0.00 35 1007.4
20260506233007 78 213 0.0 0.0 0.00 0.00 0.00 35 1007.7
20260506231506 78 223 0.0 0.9 0.00 0.00 0.00 32 1007.8
20260506230004 79 220 0.0 0.9 0.00 0.00 0.00 33 1007.8
20260506224502 79 324 0.0 1.7 0.00 0.00 0.00 34 1008.0
20260506223104 79 286 0.0 0.9 0.00 0.00 0.00 36 1008.3
20260506221604 80 12 0.0 4.3 0.00 0.00 0.00 35 1008.3
20260506220057 81 99 0.0 0.0 0.00 0.00 0.00 36 1008.5
20260506214600 80 225 0.0 3.5 0.00 0.00 0.00 35 1008.5
20260506213057 79 209 0.0 0.0 0.00 0.00 0.00 36 1008.6
20260506211553 78 275 0.0 2.6 0.00 0.00 0.00 35 1008.7
20260506210048 77 119 0.0 0.9 0.00 0.00 0.00 40 1008.9
20260506204543 77 215 0.0 0.9 0.00 0.00 0.00 39 1009.2
20260506203039 76 227 0.0 0.0 0.00 0.00 0.00 43 1009.3
20260506201538 75 355 0.0 0.0 0.00 0.00 0.00 45 1009.7
20260506200033 74 257 0.0 3.5 0.00 0.00 0.00 45 1009.7
20260506194530 73 242 0.0 0.0 0.00 0.00 0.00 45 1009.8
20260506193041 72 236 0.0 0.0 0.00 0.00 0.00 47 1009.9
20260506191526 72 220 0.0 0.0 0.00 0.00 0.00 47 1010.4
20260506190024 71 279 0.0 4.3 0.00 0.00 0.00 48 1010.5
20260506184525 71 311 0.0 0.0 0.00 0.00 0.00 49 1010.7
20260506183022 71 212 0.0 4.3 0.00 0.00 0.00 48 1010.7
20260506181535 71 261 0.0 0.0 0.00 0.00 0.00 48 1010.5
20260506180017 70 302 0.0 0.0 0.00 0.00 0.00 48 1010.7
20260506174513 68 17 0.0 0.0 0.00 0.00 0.00 49 1010.8
20260506173010 68 17 0.0 0.0 0.00 0.00 0.00 48 1011.1
20260506171514 67 197 0.0 0.9 0.00 0.00 0.00 47 1011.2
20260506170006 65 46 0.0 0.0 0.00 0.00 0.00 48 1011.4
20260506164601 64 226 0.0 0.0 0.00 0.00 0.00 49 1011.4
20260506163059 62 207 0.0 0.0 0.00 0.00 0.00 47 1011.6
20260506161552 61 218 0.0 0.0 0.00 0.00 0.00 48 1011.7
20260506160049 59 66 0.0 0.0 0.00 0.00 0.00 50 1011.6
20260506154605 57 318 0.0 0.0 0.00 0.00 0.00 59 1011.7
20260506153046 55 318 0.0 0.0 0.00 0.00 0.00 62 1011.7
20260506151544 54 58 0.0 0.0 0.00 0.00 0.00 65 1011.7
20260506150043 52 58 0.0 0.0 0.00 0.00 0.00 70 1011.8
20260506144550 51 58 0.0 0.0 0.00 0.00 0.00 72 1011.8
20260506143041 49 58 0.0 0.0 0.00 0.00 0.00 77 1011.7
20260506141540 47 58 0.0 0.0 0.00 0.00 0.00 79 1011.8
20260506140040 47 58 0.0 0.0 0.00 0.00 0.00 80 1011.8
20260506134540 46 58 0.0 0.0 0.00 0.00 0.00 82 1011.8
20260506133047 46 58 0.0 0.0 0.00 0.00 0.00 83 1011.6
20260506131535 46 58 0.0 0.0 0.00 0.00 0.00 81 1011.4
20260506130036 46 58 0.0 0.0 0.00 0.00 0.00 81 1011.4
20260506124533 46 58 0.0 0.0 0.00 0.00 0.00 80 1011.2
20260506123030 46 58 0.0 0.0 0.00 0.00 0.00 79 1011.1
20260506121527 47 58 0.0 0.0 0.00 0.00 0.00 77 1011.0
20260506120025 47 58 0.0 0.0 0.00 0.00 0.00 77 1010.9